User: anonymous   Login
Location: Carabito
(9.8355°N, 67.9249°W)
Time: 19:48:56
(UTC+00:00)
Language:

ATLAS 3B R/B - Orbit

View from above orbital plane
View from above orbital plane
View from above satellite
View from above satellite

Ground track
Ground track

The orbit data is extracted from the following two-line orbital elements,

1 28538U 05004B   24202.52544857  .00000056  00000-0  21915-3 0  9997
2 28538  63.8229 245.7775 0208421 294.7233  63.2230 13.43264757 11563
Epoch (UTC): 20 July 2024 12:36:38
Eccentricity: 0.0208421
inclination: 63.8229°
perigee height: 941 km
apogee height: 1253 km
right ascension of ascending node: 245.7775°
argument of perigee: 294.7233°
revolutions per day: 13.43264757
mean anomaly at epoch: 63.2230°
orbit number at epoch: 1156

The dashed part of the orbit path shows where the satellite is in the earth's shadow,  

DLR